Location: Malvern Link
(52.1333°N, 2.3000°W)
Time: 11:19:26
(UTC+00:00)

MOZHAYETS 4 - Pass Details

Date: 07 July 2022
Orbit: 660 x 679 km, 98.2° (Epoch: 11 August)

Event Time Altitude Azimuth Distance (km) Brightness Sun altitude
Rises 01:01:48 0° 125° (SE) 3,019 10.9 -14.5°
Reaches altitude 10° 01:04:23 10° 111° (ESE) 2,106 10.2 -14.5°
Maximum altitude 01:07:59 23° 60° (ENE) 1,412 9.9 -14.3°
Drops below altitude 10° 01:11:36 10° 8° (N) 2,108 11.7 -14.2°
Sets 01:14:11 0° 354° (N) 3,022 12.5 -14.1°
